Year,Month,Day,Hour,Minute,Value (Times are PST for temperature in C)
2015,08,10,00,00,15.80
2015,08,10,00,01,15.80
2015,08,10,00,02,15.80
2015,08,10,00,03,15.80
2015,08,10,00,04,15.80
2015,08,10,00,05,15.80
2015,08,10,00,06,15.80
2015,08,10,00,07,15.80
2015,08,10,00,08,15.80
2015,08,10,00,09,15.80
2015,08,10,00,10,15.80
2015,08,10,00,11,15.80
2015,08,10,00,12,15.80
2015,08,10,00,13,15.80
2015,08,10,00,14,15.80
2015,08,10,00,15,15.70
2015,08,10,00,16,15.70
2015,08,10,00,17,15.70
2015,08,10,00,18,15.70
2015,08,10,00,19,15.70
2015,08,10,00,20,15.70
2015,08,10,00,21,15.60
2015,08,10,00,22,15.60
2015,08,10,00,23,15.60
2015,08,10,00,24,15.50
2015,08,10,00,25,15.50
2015,08,10,00,26,15.50
2015,08,10,00,27,15.50
2015,08,10,00,28,15.50
2015,08,10,00,29,15.40
2015,08,10,00,30,15.40
2015,08,10,00,31,15.40
2015,08,10,00,32,15.40
2015,08,10,00,33,15.50
2015,08,10,00,34,15.50
2015,08,10,00,35,15.50
2015,08,10,00,36,15.50
2015,08,10,00,37,15.50
2015,08,10,00,38,15.50
2015,08,10,00,39,15.60
2015,08,10,00,40,15.60
2015,08,10,00,41,15.60
2015,08,10,00,42,15.60
2015,08,10,00,43,15.70
2015,08,10,00,44,15.80
2015,08,10,00,45,15.80
2015,08,10,00,46,15.90
2015,08,10,00,47,15.90
2015,08,10,00,48,15.90
2015,08,10,00,49,15.90
2015,08,10,00,50,15.90
2015,08,10,00,51,15.90
2015,08,10,00,52,15.90
2015,08,10,00,53,15.90
2015,08,10,00,54,16.00
2015,08,10,00,55,16.00
2015,08,10,00,56,16.00
2015,08,10,00,57,16.00
2015,08,10,00,58,16.00
2015,08,10,00,59,16.00
2015,08,10,01,00,16.00
2015,08,10,01,01,16.00
2015,08,10,01,02,16.00
2015,08,10,01,03,16.00
2015,08,10,01,04,16.00
2015,08,10,01,05,16.00
2015,08,10,01,06,16.00
2015,08,10,01,07,16.10
2015,08,10,01,08,16.10
2015,08,10,01,09,16.10
2015,08,10,01,10,16.10
2015,08,10,01,11,16.10
2015,08,10,01,12,16.10
2015,08,10,01,13,16.10
2015,08,10,01,14,16.10
2015,08,10,01,15,16.10
2015,08,10,01,16,16.10
2015,08,10,01,17,16.20
2015,08,10,01,18,16.20
2015,08,10,01,19,16.20
2015,08,10,01,20,16.20
2015,08,10,01,21,16.20
2015,08,10,01,22,16.20
2015,08,10,01,23,16.10
2015,08,10,01,24,16.10
2015,08,10,01,25,16.10
2015,08,10,01,26,16.10
2015,08,10,01,27,16.00
2015,08,10,01,28,16.00
2015,08,10,01,29,15.90
2015,08,10,01,30,15.90
2015,08,10,01,31,15.90
2015,08,10,01,32,15.80
2015,08,10,01,33,15.80
2015,08,10,01,34,15.80
2015,08,10,01,35,15.80
2015,08,10,01,36,15.80
2015,08,10,01,37,15.70
2015,08,10,01,38,15.70
2015,08,10,01,39,15.70
2015,08,10,01,40,15.70
2015,08,10,01,41,15.70
2015,08,10,01,42,15.70
2015,08,10,01,43,15.70
2015,08,10,01,44,15.70
2015,08,10,01,45,15.70
2015,08,10,01,46,15.70
2015,08,10,01,47,15.70
2015,08,10,01,48,15.70
2015,08,10,01,49,15.70
2015,08,10,01,50,15.60
2015,08,10,01,51,15.60
2015,08,10,01,52,15.60
2015,08,10,01,53,15.60
2015,08,10,01,54,15.60
2015,08,10,01,55,15.60
2015,08,10,01,56,15.50
2015,08,10,01,57,15.50
2015,08,10,01,58,15.50
2015,08,10,01,59,15.40
2015,08,10,02,00,15.40
2015,08,10,02,01,15.40
2015,08,10,02,02,15.40
2015,08,10,02,03,15.40
2015,08,10,02,04,15.30
2015,08,10,02,05,15.30
2015,08,10,02,06,15.30
2015,08,10,02,07,15.30
2015,08,10,02,08,15.30
2015,08,10,02,09,15.30
2015,08,10,02,10,15.30
2015,08,10,02,11,15.30
2015,08,10,02,12,15.30
2015,08,10,02,13,15.40
2015,08,10,02,14,15.30
2015,08,10,02,15,15.30
2015,08,10,02,16,15.30
2015,08,10,02,17,15.30
2015,08,10,02,18,15.30
2015,08,10,02,19,15.30
2015,08,10,02,20,15.30
2015,08,10,02,21,15.30
2015,08,10,02,22,15.30
2015,08,10,02,23,15.30
2015,08,10,02,24,15.30
2015,08,10,02,25,15.30
2015,08,10,02,26,15.30
2015,08,10,02,27,15.30
2015,08,10,02,28,15.30
2015,08,10,02,29,15.30
2015,08,10,02,30,15.30
2015,08,10,02,31,15.30
2015,08,10,02,32,15.30
2015,08,10,02,33,15.30
2015,08,10,02,34,15.30
2015,08,10,02,35,15.30
2015,08,10,02,36,15.30
2015,08,10,02,37,15.30
2015,08,10,02,38,15.30
2015,08,10,02,39,15.30
2015,08,10,02,40,15.30
2015,08,10,02,41,15.30
2015,08,10,02,42,15.30
2015,08,10,02,43,15.20
2015,08,10,02,44,15.20
2015,08,10,02,45,15.20
2015,08,10,02,46,15.20
2015,08,10,02,47,15.10
2015,08,10,02,48,15.10
2015,08,10,02,49,15.00
2015,08,10,02,50,15.00
2015,08,10,02,51,14.90
2015,08,10,02,52,14.90
2015,08,10,02,53,14.80
2015,08,10,02,54,14.80
2015,08,10,02,55,14.80
2015,08,10,02,56,14.80
2015,08,10,02,57,14.80
2015,08,10,02,58,14.80
2015,08,10,02,59,14.80
2015,08,10,03,00,14.70
2015,08,10,03,01,14.70
2015,08,10,03,02,14.70
2015,08,10,03,06,14.60
2015,08,10,03,07,14.60
2015,08,10,03,08,14.60
2015,08,10,03,09,14.60
2015,08,10,03,10,14.50
2015,08,10,03,11,14.50
2015,08,10,03,12,14.50
2015,08,10,03,13,14.50
2015,08,10,03,14,14.50
2015,08,10,03,15,14.40
2015,08,10,03,16,14.40
2015,08,10,03,17,14.40
2015,08,10,03,18,14.40
2015,08,10,03,19,14.40
2015,08,10,03,20,14.40
2015,08,10,03,21,14.40
2015,08,10,03,22,14.40
2015,08,10,03,23,14.40
2015,08,10,03,24,14.40
2015,08,10,03,25,14.50
2015,08,10,03,26,14.50
2015,08,10,03,27,14.50
2015,08,10,03,28,14.60
2015,08,10,03,29,14.60
2015,08,10,03,30,14.70
2015,08,10,03,31,14.70
2015,08,10,03,32,14.70
2015,08,10,03,33,14.80
2015,08,10,03,34,14.80
2015,08,10,03,35,14.90
2015,08,10,03,36,14.90
2015,08,10,03,37,14.90
2015,08,10,03,38,14.90
2015,08,10,03,39,14.90
2015,08,10,03,40,15.00
2015,08,10,03,41,15.00
2015,08,10,03,42,15.00
2015,08,10,03,43,15.00
2015,08,10,03,44,15.10
2015,08,10,03,45,15.10
2015,08,10,03,46,15.10
2015,08,10,03,47,15.10
2015,08,10,03,48,15.10
2015,08,10,03,49,15.10
2015,08,10,03,50,15.10
2015,08,10,03,51,15.20
2015,08,10,03,52,15.10
2015,08,10,03,53,15.10
2015,08,10,03,54,15.10
2015,08,10,03,55,15.10
2015,08,10,03,56,15.10
2015,08,10,03,57,15.10
2015,08,10,03,58,15.10
2015,08,10,03,59,15.10
2015,08,10,04,00,15.10
2015,08,10,04,01,15.10
2015,08,10,04,02,15.10
2015,08,10,07,26,15.40
2015,08,10,07,27,15.40
2015,08,10,07,28,15.40
2015,08,10,07,29,15.40
2015,08,10,07,30,15.40
2015,08,10,07,31,15.40
2015,08,10,07,32,15.50
2015,08,10,07,33,15.50
2015,08,10,07,34,15.50
2015,08,10,07,35,15.50
2015,08,10,07,36,15.60
2015,08,10,07,37,15.60
2015,08,10,07,38,15.60
2015,08,10,07,39,15.60
2015,08,10,07,40,15.60
2015,08,10,07,41,15.60
2015,08,10,07,42,15.60
2015,08,10,07,43,15.60
2015,08,10,07,44,15.60
2015,08,10,07,45,15.70
2015,08,10,07,46,15.70
2015,08,10,07,47,15.70
2015,08,10,07,48,15.70
2015,08,10,07,49,15.70
2015,08,10,07,50,15.70
2015,08,10,07,51,15.70
2015,08,10,07,52,15.70
2015,08,10,07,53,15.80
2015,08,10,07,54,15.80
2015,08,10,07,55,15.80
2015,08,10,07,56,15.80
2015,08,10,07,57,15.80
2015,08,10,07,58,15.90
2015,08,10,07,59,15.90
2015,08,10,08,00,15.90
2015,08,10,08,01,16.00
2015,08,10,08,02,16.00
2015,08,10,08,03,16.00
2015,08,10,08,04,16.10
2015,08,10,08,05,16.10
2015,08,10,08,06,16.10
2015,08,10,08,07,16.10
2015,08,10,08,08,16.10
2015,08,10,08,09,16.20
2015,08,10,08,10,16.20
2015,08,10,08,11,16.20
2015,08,10,08,12,16.20
2015,08,10,08,13,16.30
2015,08,10,08,14,16.30
2015,08,10,08,15,16.30
2015,08,10,08,16,16.30
2015,08,10,08,17,16.30
2015,08,10,08,18,16.40
2015,08,10,08,19,16.40
2015,08,10,08,20,16.40
2015,08,10,08,21,16.40
2015,08,10,08,22,16.40
2015,08,10,08,23,16.40
2015,08,10,08,24,16.50
2015,08,10,08,25,16.50
2015,08,10,08,26,16.50
2015,08,10,08,27,16.50
2015,08,10,08,28,16.60
2015,08,10,08,29,16.60
2015,08,10,08,30,16.60
2015,08,10,08,31,16.60
2015,08,10,08,32,16.60
2015,08,10,08,33,16.60
2015,08,10,08,34,16.60
2015,08,10,08,35,16.60
2015,08,10,08,36,16.60
2015,08,10,08,37,16.60
2015,08,10,08,38,16.60
2015,08,10,08,39,16.70
2015,08,10,08,40,16.70
2015,08,10,08,41,16.70
2015,08,10,08,42,16.80
2015,08,10,08,43,16.80
2015,08,10,08,44,16.80
2015,08,10,08,45,16.90
2015,08,10,08,46,16.90
2015,08,10,08,47,17.00
2015,08,10,08,48,17.10
2015,08,10,08,49,17.10
2015,08,10,08,50,17.10
2015,08,10,08,51,17.20
2015,08,10,08,52,17.20
2015,08,10,08,53,17.20
2015,08,10,08,54,17.30
2015,08,10,08,55,17.30
2015,08,10,08,56,17.30
2015,08,10,08,57,17.30
2015,08,10,08,58,17.40
2015,08,10,08,59,17.40
2015,08,10,09,00,17.40
2015,08,10,09,01,17.50
2015,08,10,09,02,17.50
2015,08,10,09,03,17.60
2015,08,10,09,04,17.60
2015,08,10,09,05,17.60
2015,08,10,09,06,17.60
2015,08,10,09,07,17.70
2015,08,10,09,08,17.70
2015,08,10,09,09,17.70
2015,08,10,09,10,17.70
2015,08,10,09,11,17.80
2015,08,10,09,12,17.80
2015,08,10,09,13,17.80
2015,08,10,09,14,17.80
2015,08,10,09,15,17.80
2015,08,10,09,16,17.80
2015,08,10,09,17,17.80
2015,08,10,09,18,17.80
2015,08,10,09,19,17.80
2015,08,10,09,20,17.90
2015,08,10,09,21,17.90
2015,08,10,09,22,17.90
2015,08,10,09,23,17.90
2015,08,10,09,24,17.90
2015,08,10,09,25,17.90
2015,08,10,09,26,18.00
2015,08,10,09,27,18.00
2015,08,10,09,28,18.00
2015,08,10,09,29,18.00
2015,08,10,09,30,18.00
2015,08,10,09,31,18.00
2015,08,10,09,32,18.00
2015,08,10,09,33,18.00
2015,08,10,09,34,17.90
2015,08,10,09,35,17.90
2015,08,10,09,36,17.90
2015,08,10,09,37,17.90
2015,08,10,09,38,17.80
2015,08,10,09,39,17.80
2015,08,10,09,40,17.80
2015,08,10,09,41,17.80
2015,08,10,09,42,17.80
2015,08,10,09,43,17.80
2015,08,10,09,44,17.80
2015,08,10,09,45,17.80
2015,08,10,09,46,17.80
2015,08,10,09,47,17.80
2015,08,10,09,48,17.80
2015,08,10,09,49,17.80
2015,08,10,09,50,17.80
2015,08,10,09,51,17.80
2015,08,10,09,52,17.80
2015,08,10,09,53,17.80
2015,08,10,09,54,17.80
2015,08,10,09,55,17.80
2015,08,10,09,56,17.70
2015,08,10,09,57,17.70
2015,08,10,09,58,17.70
2015,08,10,09,59,17.70
2015,08,10,10,00,17.70
2015,08,10,10,01,17.80
2015,08,10,10,02,17.80
2015,08,10,10,03,17.80
2015,08,10,10,04,17.90
2015,08,10,10,05,17.90
2015,08,10,10,06,18.00
2015,08,10,10,07,18.10
2015,08,10,10,08,18.10
2015,08,10,10,09,18.20
2015,08,10,10,10,18.30
2015,08,10,10,11,18.40
2015,08,10,10,12,18.50
2015,08,10,10,13,18.60
2015,08,10,10,14,18.60
2015,08,10,10,15,18.70
2015,08,10,10,16,18.70
2015,08,10,10,17,18.80
2015,08,10,10,18,18.80
2015,08,10,10,19,18.80
2015,08,10,10,20,18.90
2015,08,10,10,21,18.90
2015,08,10,10,22,19.00
2015,08,10,10,23,19.00
2015,08,10,10,24,19.10
2015,08,10,10,25,19.10
2015,08,10,10,26,19.20
2015,08,10,10,27,19.20
2015,08,10,10,28,19.30
2015,08,10,10,29,19.40
2015,08,10,10,30,19.50
2015,08,10,10,31,19.60
2015,08,10,10,32,19.70
2015,08,10,10,33,19.80
2015,08,10,10,34,19.80
2015,08,10,10,35,19.90
2015,08,10,10,36,20.00
2015,08,10,10,37,20.10
2015,08,10,10,38,20.20
2015,08,10,10,39,20.20
2015,08,10,10,40,20.20
2015,08,10,10,41,20.20
2015,08,10,10,42,20.20
2015,08,10,10,43,20.20
2015,08,10,10,44,20.20
2015,08,10,10,45,20.20
2015,08,10,10,46,20.30
2015,08,10,10,47,20.30
2015,08,10,10,48,20.30
2015,08,10,10,49,20.30
2015,08,10,10,50,20.30
2015,08,10,10,51,20.30
2015,08,10,10,52,20.20
2015,08,10,10,53,20.20
2015,08,10,10,54,20.20
2015,08,10,10,55,20.20
2015,08,10,10,56,20.10
2015,08,10,10,57,20.10
2015,08,10,10,58,20.10
2015,08,10,10,59,20.10
2015,08,10,11,00,20.20
2015,08,10,11,01,20.20
2015,08,10,11,02,20.30
2015,08,10,11,03,20.40
2015,08,10,11,04,20.50
2015,08,10,11,05,20.60
2015,08,10,11,06,20.70
2015,08,10,11,07,20.90
2015,08,10,11,08,21.00
2015,08,10,11,09,21.20
2015,08,10,11,10,21.30
2015,08,10,11,11,21.40
2015,08,10,11,12,21.50
2015,08,10,11,13,21.50
2015,08,10,11,14,21.60
2015,08,10,11,15,21.60
2015,08,10,11,16,21.60
2015,08,10,11,17,21.60
2015,08,10,11,18,21.50
2015,08,10,11,19,21.50
2015,08,10,11,20,21.50
2015,08,10,11,21,21.50
2015,08,10,11,22,21.40
2015,08,10,11,23,21.40
2015,08,10,11,24,21.40
2015,08,10,11,25,21.40
2015,08,10,11,26,21.40
2015,08,10,11,27,21.40
2015,08,10,11,28,21.40
2015,08,10,11,29,21.40
2015,08,10,11,30,21.40
2015,08,10,11,31,21.40
2015,08,10,11,32,21.40
2015,08,10,11,33,21.50
2015,08,10,11,34,21.50
2015,08,10,11,35,21.60
2015,08,10,11,36,21.60
2015,08,10,11,37,21.60
2015,08,10,11,38,21.60
2015,08,10,11,39,21.60
2015,08,10,11,40,21.60
2015,08,10,11,41,21.60
2015,08,10,11,42,21.60
2015,08,10,11,43,21.60
2015,08,10,11,44,21.60
2015,08,10,11,45,21.50
2015,08,10,11,46,21.50
2015,08,10,11,47,21.40
2015,08,10,11,48,21.40
2015,08,10,11,49,21.40
2015,08,10,11,50,21.40
2015,08,10,11,51,21.40
2015,08,10,11,52,21.50
2015,08,10,11,53,21.50
2015,08,10,11,54,21.60
2015,08,10,11,55,21.70
2015,08,10,11,56,21.90
2015,08,10,11,57,22.00
2015,08,10,11,58,22.10
2015,08,10,11,59,22.20
2015,08,10,12,00,22.20
2015,08,10,12,01,22.10
2015,08,10,12,02,22.00
2015,08,10,12,03,22.00
2015,08,10,12,04,22.00
2015,08,10,12,05,21.90
2015,08,10,12,06,21.80
2015,08,10,12,07,21.80
2015,08,10,12,08,21.80
2015,08,10,12,09,21.80
2015,08,10,12,10,21.80
2015,08,10,12,11,21.80
2015,08,10,12,12,21.90
2015,08,10,12,13,21.90
2015,08,10,12,14,22.00
2015,08,10,12,15,22.10
2015,08,10,12,16,22.10
2015,08,10,12,17,22.10
2015,08,10,12,18,22.00
2015,08,10,12,19,21.90
2015,08,10,12,20,21.90
2015,08,10,12,21,21.90
2015,08,10,12,22,21.90
2015,08,10,12,23,21.90
2015,08,10,12,24,21.90
2015,08,10,12,25,21.90
2015,08,10,12,26,21.90
2015,08,10,12,27,22.00
2015,08,10,12,28,22.10
2015,08,10,12,29,22.10
2015,08,10,12,30,22.20
2015,08,10,12,31,22.30
2015,08,10,12,32,22.40
2015,08,10,12,33,22.30
2015,08,10,12,34,22.30
2015,08,10,12,35,22.30
2015,08,10,12,36,22.30
2015,08,10,12,37,22.30
2015,08,10,12,38,22.30
2015,08,10,12,39,22.30
2015,08,10,12,40,22.30
2015,08,10,12,41,22.40
2015,08,10,12,42,22.40
2015,08,10,12,43,22.50
2015,08,10,12,44,22.60
2015,08,10,12,45,22.80
2015,08,10,12,46,22.80
2015,08,10,12,47,22.80
2015,08,10,12,48,22.80
2015,08,10,12,49,22.90
2015,08,10,12,50,23.10
2015,08,10,12,51,23.10
2015,08,10,12,52,23.10
2015,08,10,12,53,23.10
2015,08,10,12,54,23.10
2015,08,10,12,55,23.10
2015,08,10,12,56,23.10
2015,08,10,12,57,23.20
2015,08,10,12,58,23.20
2015,08,10,12,59,23.20
2015,08,10,13,00,23.20
2015,08,10,13,01,23.30
2015,08,10,13,02,23.30
2015,08,10,13,03,23.40
2015,08,10,13,04,23.50
2015,08,10,13,05,23.60
2015,08,10,13,06,23.60
2015,08,10,13,07,23.60
2015,08,10,13,08,23.60
2015,08,10,13,09,23.60
2015,08,10,13,10,23.50
2015,08,10,13,11,23.30
2015,08,10,13,12,23.10
2015,08,10,13,13,22.90
2015,08,10,13,14,22.70
2015,08,10,13,15,22.60
2015,08,10,13,16,22.50
2015,08,10,13,17,22.50
2015,08,10,13,18,22.40
2015,08,10,13,19,22.40
2015,08,10,13,20,22.40
2015,08,10,13,21,22.40
2015,08,10,13,22,22.30
2015,08,10,13,23,22.20
2015,08,10,13,24,22.10
2015,08,10,13,25,22.10
2015,08,10,13,26,22.10
2015,08,10,13,27,22.10
2015,08,10,13,28,22.20
2015,08,10,13,29,22.20
2015,08,10,13,30,22.30
2015,08,10,13,31,22.30
2015,08,10,13,32,22.30
2015,08,10,13,33,22.30
2015,08,10,13,34,22.30
2015,08,10,13,35,22.20
2015,08,10,13,36,22.30
2015,08,10,13,37,22.30
2015,08,10,13,38,22.20
2015,08,10,13,39,22.20
2015,08,10,13,40,22.30
2015,08,10,13,41,22.40
2015,08,10,13,42,22.40
2015,08,10,13,43,22.40
2015,08,10,13,44,22.30
2015,08,10,13,45,22.30
2015,08,10,13,46,22.30
2015,08,10,13,47,22.30
2015,08,10,13,48,22.30
2015,08,10,13,49,22.30
2015,08,10,13,50,22.30
2015,08,10,13,51,22.40
2015,08,10,13,52,22.40
2015,08,10,13,53,22.30
2015,08,10,13,54,22.40
2015,08,10,13,55,22.60
2015,08,10,13,56,22.70
2015,08,10,13,57,22.60
2015,08,10,13,58,22.70
2015,08,10,13,59,22.80
2015,08,10,14,00,22.80
2015,08,10,14,01,22.90
2015,08,10,14,02,23.10
2015,08,10,14,03,23.10
2015,08,10,14,04,23.10
2015,08,10,14,05,23.10
2015,08,10,14,06,23.20
2015,08,10,14,07,23.20
2015,08,10,14,08,23.10
2015,08,10,14,09,23.10
2015,08,10,14,10,23.00
2015,08,10,14,11,23.00
2015,08,10,14,12,22.90
2015,08,10,14,13,22.90
2015,08,10,14,14,22.80
2015,08,10,14,15,22.80
2015,08,10,14,16,22.70
2015,08,10,14,17,22.70
2015,08,10,14,18,22.70
2015,08,10,14,19,22.70
2015,08,10,14,20,22.70
2015,08,10,14,21,22.80
2015,08,10,14,22,22.80
2015,08,10,14,23,22.80
2015,08,10,14,24,22.80
2015,08,10,14,25,22.80
2015,08,10,14,26,22.80
2015,08,10,14,27,22.80
2015,08,10,14,28,22.90
2015,08,10,14,29,23.00
2015,08,10,14,30,23.00
2015,08,10,14,31,23.20
2015,08,10,14,32,23.30
2015,08,10,14,33,23.50
2015,08,10,14,34,23.70
2015,08,10,14,35,23.90
2015,08,10,14,36,24.10
2015,08,10,14,37,24.10
2015,08,10,14,38,24.10
2015,08,10,14,39,24.10
2015,08,10,14,40,24.10
2015,08,10,14,41,24.10
2015,08,10,14,42,24.10
2015,08,10,14,43,24.00
2015,08,10,14,44,24.00
2015,08,10,14,45,24.00
2015,08,10,14,46,24.10
2015,08,10,14,47,24.10
2015,08,10,14,48,24.20
2015,08,10,14,49,24.20
2015,08,10,14,50,24.20
2015,08,10,14,51,24.30
2015,08,10,14,52,24.30
2015,08,10,14,53,24.20
2015,08,10,14,54,24.10
2015,08,10,14,55,24.00
2015,08,10,14,56,23.90
2015,08,10,14,57,24.00
2015,08,10,14,58,24.00
2015,08,10,14,59,24.00
2015,08,10,15,00,24.10
2015,08,10,15,01,24.10
2015,08,10,15,02,24.10
2015,08,10,15,03,24.20
2015,08,10,15,04,24.20
2015,08,10,15,05,24.30
2015,08,10,15,06,24.30
2015,08,10,15,07,24.30
2015,08,10,15,08,24.20
2015,08,10,15,09,24.20
2015,08,10,15,10,24.20
2015,08,10,15,11,24.30
2015,08,10,15,12,24.40
2015,08,10,15,13,24.40
2015,08,10,15,14,24.50
2015,08,10,15,15,24.60
2015,08,10,15,16,24.60
2015,08,10,15,17,24.70
2015,08,10,15,18,24.70
2015,08,10,15,19,24.70
2015,08,10,15,20,24.70
2015,08,10,15,21,24.60
2015,08,10,15,22,24.50
2015,08,10,15,23,24.30
2015,08,10,15,24,24.30
2015,08,10,15,25,24.30
2015,08,10,15,26,24.30
2015,08,10,15,27,24.30
2015,08,10,15,28,24.40
2015,08,10,15,29,24.40
2015,08,10,15,30,24.40
2015,08,10,15,31,24.40
2015,08,10,15,32,24.50
2015,08,10,15,33,24.60
2015,08,10,15,34,24.60
2015,08,10,15,35,24.60
2015,08,10,15,36,24.60
2015,08,10,15,37,24.60
2015,08,10,15,38,24.60
2015,08,10,15,39,24.50
2015,08,10,15,40,24.40
2015,08,10,15,41,24.40
2015,08,10,15,42,24.40
2015,08,10,15,43,24.40
2015,08,10,15,44,24.30
2015,08,10,15,45,24.30
2015,08,10,15,46,24.40
2015,08,10,15,47,24.40
2015,08,10,15,48,24.50
2015,08,10,15,49,24.60
2015,08,10,15,50,24.70
2015,08,10,15,51,24.90
2015,08,10,15,52,25.00
2015,08,10,15,53,25.00
2015,08,10,15,54,24.90
2015,08,10,15,55,24.90
2015,08,10,15,56,24.80
2015,08,10,15,57,24.80
2015,08,10,15,58,25.00
2015,08,10,15,59,25.00
2015,08,10,16,00,25.00
2015,08,10,16,01,24.90
2015,08,10,16,02,25.00
2015,08,10,16,03,25.10
2015,08,10,16,04,25.10
2015,08,10,16,05,25.10
2015,08,10,16,06,25.00
2015,08,10,16,07,24.90
2015,08,10,16,08,24.80
2015,08,10,16,09,24.70
2015,08,10,16,10,24.60
2015,08,10,16,11,24.60
2015,08,10,16,12,24.60
2015,08,10,16,13,24.70
2015,08,10,16,14,24.70
2015,08,10,16,15,24.70
2015,08,10,16,16,24.80
2015,08,10,16,17,24.90
2015,08,10,16,18,24.90
2015,08,10,16,19,24.90
2015,08,10,16,20,24.90
2015,08,10,16,21,24.80
2015,08,10,16,22,24.80
2015,08,10,16,23,24.80
2015,08,10,16,24,24.80
2015,08,10,16,25,24.90
2015,08,10,16,26,24.90
2015,08,10,16,27,24.90
2015,08,10,16,28,24.80
2015,08,10,16,29,24.80
2015,08,10,16,30,24.80
2015,08,10,16,31,24.80
2015,08,10,16,32,24.80
2015,08,10,16,33,24.90
2015,08,10,16,34,24.90
2015,08,10,16,35,25.00
2015,08,10,16,36,25.10
2015,08,10,16,37,25.20
2015,08,10,16,38,25.30
2015,08,10,16,39,25.30
2015,08,10,16,40,25.30
2015,08,10,16,41,25.30
2015,08,10,16,42,25.40
2015,08,10,16,43,25.40
2015,08,10,16,44,25.30
2015,08,10,16,45,25.20
2015,08,10,16,46,25.20
2015,08,10,16,47,25.30
2015,08,10,16,48,25.20
2015,08,10,16,49,25.20
2015,08,10,16,50,25.20
2015,08,10,16,51,25.20
2015,08,10,16,52,25.20
2015,08,10,16,53,25.20
2015,08,10,16,54,25.30
2015,08,10,16,55,25.30
2015,08,10,16,56,25.30
2015,08,10,16,57,25.40
2015,08,10,16,58,25.50
2015,08,10,16,59,25.60
2015,08,10,17,00,25.70
2015,08,10,17,01,25.70
2015,08,10,17,02,25.80
2015,08,10,17,03,25.80
2015,08,10,17,04,25.80
2015,08,10,17,05,25.80
2015,08,10,17,06,25.70
2015,08,10,17,07,25.70
2015,08,10,17,08,25.60
2015,08,10,17,09,25.50
2015,08,10,17,10,25.40
2015,08,10,17,11,25.40
2015,08,10,17,12,25.40
2015,08,10,17,13,25.40
2015,08,10,17,14,25.50
2015,08,10,17,15,25.50
2015,08,10,17,16,25.60
2015,08,10,17,17,25.70
2015,08,10,17,18,25.70
2015,08,10,17,19,25.80
2015,08,10,17,20,25.90
2015,08,10,17,21,25.90
2015,08,10,17,22,26.00
2015,08,10,17,23,26.10
2015,08,10,17,24,26.10
2015,08,10,17,25,26.20
2015,08,10,17,26,26.30
2015,08,10,17,27,26.30
2015,08,10,17,28,26.30
2015,08,10,17,29,26.30
2015,08,10,17,30,26.30
2015,08,10,17,31,26.30
2015,08,10,17,32,26.40
2015,08,10,17,33,26.40
2015,08,10,17,34,26.40
2015,08,10,17,35,26.40
2015,08,10,17,36,26.40
2015,08,10,17,37,26.30
2015,08,10,17,38,26.30
2015,08,10,17,39,26.30
2015,08,10,17,40,26.30
2015,08,10,17,41,26.30
2015,08,10,17,42,26.30
2015,08,10,17,43,26.20
2015,08,10,17,44,26.20
2015,08,10,17,45,26.20
2015,08,10,17,46,26.10
2015,08,10,17,47,26.10
2015,08,10,17,48,26.00
2015,08,10,17,49,26.00
2015,08,10,17,50,25.90
2015,08,10,17,51,25.90
2015,08,10,17,52,25.90
2015,08,10,17,53,25.80
2015,08,10,17,54,25.80
2015,08,10,17,55,25.70
2015,08,10,17,56,25.60
2015,08,10,17,57,25.50
2015,08,10,17,58,25.40
2015,08,10,17,59,25.40
2015,08,10,18,00,25.40
2015,08,10,18,01,25.40
2015,08,10,18,02,25.50
2015,08,10,18,03,25.50
2015,08,10,18,04,25.50
2015,08,10,18,05,25.60
2015,08,10,18,06,25.60
2015,08,10,18,07,25.60
2015,08,10,18,08,25.60
2015,08,10,18,09,25.60
2015,08,10,18,10,25.60
2015,08,10,18,11,25.60
2015,08,10,18,12,25.60
2015,08,10,18,13,25.60
2015,08,10,18,14,25.60
2015,08,10,18,15,25.60
2015,08,10,18,16,25.60
2015,08,10,18,17,25.60
2015,08,10,18,18,25.50
2015,08,10,18,19,25.50
2015,08,10,18,20,25.40
2015,08,10,18,21,25.30
2015,08,10,18,22,25.30
2015,08,10,18,23,25.20
2015,08,10,18,24,25.10
2015,08,10,18,25,25.10
2015,08,10,18,26,25.10
2015,08,10,18,27,25.10
2015,08,10,18,28,25.10
2015,08,10,18,29,25.10
2015,08,10,18,30,25.10
2015,08,10,18,31,25.10
2015,08,10,18,32,25.20
2015,08,10,18,33,25.20
2015,08,10,18,34,25.20
2015,08,10,18,35,25.30
2015,08,10,18,36,25.30
2015,08,10,18,37,25.30
2015,08,10,18,38,25.30
2015,08,10,18,39,25.40
2015,08,10,18,40,25.40
2015,08,10,18,41,25.40
2015,08,10,18,42,25.40
2015,08,10,18,43,25.40
2015,08,10,18,44,25.40
2015,08,10,18,45,25.40
2015,08,10,18,46,25.40
2015,08,10,18,47,25.40
2015,08,10,18,48,25.30
2015,08,10,18,49,25.30
2015,08,10,18,50,25.20
2015,08,10,18,51,25.20
2015,08,10,18,52,25.10
2015,08,10,18,53,25.10
2015,08,10,18,54,25.00
2015,08,10,18,55,25.00
2015,08,10,18,56,24.90
2015,08,10,18,57,24.90
2015,08,10,18,58,24.90
2015,08,10,18,59,24.90
2015,08,10,19,00,24.90
2015,08,10,19,01,24.90
2015,08,10,19,02,24.90
2015,08,10,19,03,24.90
2015,08,10,19,04,24.80
2015,08,10,19,05,24.80
2015,08,10,19,06,24.80
2015,08,10,19,07,24.70
2015,08,10,19,08,24.70
2015,08,10,19,09,24.70
2015,08,10,19,10,24.70
2015,08,10,19,11,24.70
2015,08,10,19,12,24.70
2015,08,10,19,13,24.70
2015,08,10,19,14,24.60
2015,08,10,19,15,24.60
2015,08,10,19,16,24.60
2015,08,10,19,17,24.50
2015,08,10,19,18,24.50
2015,08,10,19,19,24.40
2015,08,10,19,20,24.40
2015,08,10,19,21,24.40
2015,08,10,19,22,24.40
2015,08,10,19,23,24.30
2015,08,10,19,24,24.30
2015,08,10,19,25,24.30
2015,08,10,19,26,24.30
2015,08,10,19,27,24.20
2015,08,10,19,28,24.20
2015,08,10,19,29,24.20
2015,08,10,19,30,24.20
2015,08,10,19,31,24.20
2015,08,10,19,32,24.10
2015,08,10,19,33,24.10
2015,08,10,19,34,24.10
2015,08,10,19,35,24.10
2015,08,10,19,36,24.10
2015,08,10,19,37,24.00
2015,08,10,19,38,24.00
2015,08,10,19,39,24.00
2015,08,10,19,40,23.90
2015,08,10,19,41,23.90
2015,08,10,19,42,23.90
2015,08,10,19,43,23.90
2015,08,10,19,44,23.80
2015,08,10,19,45,23.80
2015,08,10,19,46,23.80
2015,08,10,19,47,23.80
2015,08,10,19,48,23.80
2015,08,10,19,49,23.80
2015,08,10,19,50,23.70
2015,08,10,19,51,23.70
2015,08,10,19,52,23.70
2015,08,10,19,53,23.70
2015,08,10,19,54,23.70
2015,08,10,19,55,23.70
2015,08,10,19,56,23.70
2015,08,10,19,57,23.60
2015,08,10,19,58,23.60
2015,08,10,19,59,23.60
2015,08,10,20,00,23.60
2015,08,10,20,01,23.50
2015,08,10,20,02,23.50
2015,08,10,20,03,23.40
2015,08,10,20,04,23.40
2015,08,10,20,05,23.40
2015,08,10,20,06,23.40
2015,08,10,20,07,23.30
2015,08,10,20,08,23.30
2015,08,10,20,09,23.30
2015,08,10,20,10,23.30
2015,08,10,20,11,23.20
2015,08,10,20,12,23.20
2015,08,10,20,13,23.10
2015,08,10,20,14,23.10
2015,08,10,20,15,23.10
2015,08,10,20,16,23.00
2015,08,10,20,17,23.00
2015,08,10,20,18,22.90
2015,08,10,20,19,22.90
2015,08,10,20,20,22.90
2015,08,10,20,21,22.80
2015,08,10,20,22,22.80
2015,08,10,20,23,22.80
2015,08,10,20,24,22.80
2015,08,10,20,25,22.70
2015,08,10,20,26,22.70
2015,08,10,20,27,22.70
2015,08,10,20,28,22.60
2015,08,10,20,29,22.60
2015,08,10,20,30,22.50
2015,08,10,20,31,22.50
2015,08,10,20,32,22.40
2015,08,10,20,33,22.40
2015,08,10,20,34,22.30
2015,08,10,20,35,22.30
2015,08,10,20,36,22.30
2015,08,10,20,37,22.20
2015,08,10,20,38,22.20
2015,08,10,20,39,22.10
2015,08,10,20,40,22.10
2015,08,10,20,41,22.10
2015,08,10,20,42,22.00
2015,08,10,20,43,22.00
2015,08,10,20,44,21.90
2015,08,10,20,45,21.90